This is the latest recevied weather packets stored in our database for station/object N9BSW. If no packets are shown the sender has not sent any weather packets the latest 10 day(s).
| Time | Temp. | Humidity | Pressure | Rain* | Wind** | Luminosity | Snow |
|---|---|---|---|---|---|---|---|
| 1777985560 | 15° C | 93% | 1007.9 hPa | 0 mm | - | 159 W/m² | - |
| 1777985256 | 15° C | 93% | 1007.9 hPa | 0 mm | - | 146 W/m² | - |
| 1777984953 | 15° C | 93% | 1007.8 hPa | 0 mm | - | 154 W/m² | - |
| 1777984649 | 14.44° C | 93% | 1007.6 hPa | 0 mm | - | 157 W/m² | - |
| 1777984346 | 14.44° C | 93% | 1007.6 hPa | 0 mm | - | 115 W/m² | - |
| 1777984042 | 14.44° C | 93% | 1007.8 hPa | 0 mm | - | 86 W/m² | - |
| 1777983740 | 14.44° C | 94% | 1007.6 hPa | 0 mm | - | 67 W/m² | - |
| 1777983436 | 14.44° C | 94% | 1007.7 hPa | 0 mm | - | 89 W/m² | - |
| 1777983133 | 14.44° C | 94% | 1007.6 hPa | 0 mm | - | 127 W/m² | - |
| 1777982829 | 14.44° C | 95% | 1007.5 hPa | 0 mm | - | 101 W/m² | - |
| 1777982526 | 14.44° C | 95% | 1007.4 hPa | 0 mm | - | 91 W/m² | - |
| 1777982224 | 13.89° C | 95% | 1007.3 hPa | 0 mm | - | 81 W/m² | - |
| 1777981923 | 13.89° C | 95% | 1007.6 hPa | 0 mm | - | 82 W/m² | - |
| 1777981620 | 13.89° C | 95% | 1007.4 hPa | 0 mm | - | 77 W/m² | - |
| 1777981315 | 13.89° C | 95% | 1007.5 hPa | 0 mm | - | 57 W/m² | - |
| 1777981012 | 13.89° C | 95% | 1007.3 hPa | 0 mm | - | 37 W/m² | - |
| 1777980709 | 13.33° C | 95% | 1007.3 hPa | 0 mm | - | 27 W/m² | - |
| 1777980405 | 13.33° C | 95% | 1007.3 hPa | 0 mm | - | 22 W/m² | - |
| 1777980104 | 13.33° C | 95% | 1006.8 hPa | 0 mm | - | 15 W/m² | - |
| 1777979802 | 13.33° C | 95% | 1006.8 hPa | 0 mm | - | 14 W/m² | - |
| 1777979499 | 13.33° C | 95% | 1006.6 hPa | 0 mm | - | 12 W/m² | - |
| 1777979195 | 13.33° C | 96% | 1006.5 hPa | 0 mm | - | 12 W/m² | - |
| 1777978892 | 13.33° C | 96% | 1006.7 hPa | 0 mm | - | 10 W/m² | - |
| 1777978589 | 13.33° C | 96% | 1006.6 hPa | 0 mm | - | 7 W/m² | - |
| 1777978285 | 13.33° C | 96% | 1006.5 hPa | 0 mm | - | 4 W/m² | - |
* Rain latest hour (hover to see other rain measurements)
** Current wind speed in m/s (hover to see current wind gust speed)